Temperature
17 17 17 17 17 17 18 20 21 20 20 19 19 20 18 17 17 14 12 13 13 13 13 13 13 13 13 13 13 13 13 13 13 13 13 13 13 13 13 14 14 14 14 14 14 14 14 14 14
16 16 16 17 17 17 18 19 20 19 19 18 19 19 18 16 14 13 12 12 12 12 13 13 13 12 12 12 13 13 13 13 13 13 13 13 13 13 13 13 13 13 13 14 14 14 14 14 14
16 16 17 17 17 18 19 19 19 19 18 18 18 17 16 14 13 12 12 12 12 12 12 13 12 12 12 12 12 13 13 13 13 13 13 13 13 13 13 13 13 13 13 13 13 13 13 13 13
15 16 17 17 17 18 19 19 18 18 18 18 18 16 14 12 12 12 12 11 11 11 12 12 12 12 12 12 12 12 12 12 12 12 12 12 12 13 13 13 13 13 13 13 13 13 13 13 13
15 16 16 16 17 18 19 19 19 18 18 18 17 16 12 12 12 12 11 11 11 11 11 12 12 12 12 12 12 12 12 12 12 12 12 12 12 12 12 12 12 12 12 12 13 13 13 13 13
16 17 16 16 18 18 19 19 19 19 18 17 17 16 11 11 11 11 11 11 11 11 11 11 11 12 12 12 12 12 12 12 12 12 12 12 12 12 12 12 12 12 12 12 12 12 12 12 12
16 16 16 17 18 18 18 18 18 18 17 16 16 15 11 10 11 11 10 10 10 10 11 11 11 11 11 11 11 11 11 11 11 11 11 11 11 11 11 11 12 12 12 12 12 12 12 12 12
15 16 17 17 18 17 17 17 16 16 15 14 14 14 11 10 10 10 10 10 10 10 10 11 11 11 11 11 11 11 11 11 11 11 11 11 11 11 11 11 11 11 11 11 11 11 11 11 11
15 15 15 16 17 17 17 16 15 15 14 13 12 11 11 11 10 10 10 10 10 10 10 10 10 10 10 10 10 10 10 10 10 10 10 10 10 10 10 10 11 11 11 11 11 11 11 11 11
15 13 15 15 16 16 15 15 14 14 13 12 11 10 10 10 9 9 9 9 9 9 9 9 10 10 10 10 10 10 10 10 10 10 10 10 10 10 10 10 10 10 10 10 10 10 10 10 11
14 14 14 14 14 15 14 14 13 14 12 12 11 10 9 9 9 9 8 8 8 8 9 9 9 9 9 9 9 10 10 10 9 9 9 9 9 9 9 9 9 10 10 10 10 10 10 10 10
14 13 14 13 13 13 13 13 12 11 11 11 10 10 9 9 8 8 8 8 8 8 8 8 9 9 9 9 9 9 9 9 9 9 9 9 9 9 9 9 9 9 9 9 9 9 9 9 9
13 13 12 12 12 12 12 12 11 10 10 10 9 9 8 8 8 7 7 7 7 7 7 8 8 8 8 8 8 8 8 8 8 8 8 8 8 8 8 8 8 8 9 9 9 9 9 9 9
13 12 12 12 12 11 11 11 10 9 9 9 9 8 7 7 7 7 7 7 7 7 7 7 7 8 8 8 8 8 8 8 8 8 8 8 8 8 8 8 8 8 8 8 8 8 8 8 8
12 11 11 11 12 11 11 9 9 9 9 8 8 7 7 6 6 6 6 6 6 6 6 7 7 7 7 7 7 7 7 7 7 7 7 7 7 7 7 7 7 7 7 8 8 8 8 8 8
12 11 10 11 11 11 10 9 9 9 9 8 7 6 6 5 5 5 5 5 5 6 6 6 6 7 6 6 6 6 6 6 6 6 6 6 7 7 7 7 7 7 7 7 7 7 7 7 7
11 10 11 10 11 11 10 9 8 8 8 7 7 6 5 5 4 4 5 5 5 5 5 5 5 6 6 6 6 6 6 6 6 6 6 6 6 6 6 6 6 6 6 6 6 6 7 7 7
10 11 11 11 10 10 9 8 8 7 7 7 6 6 5 4 4 4 4 4 4 4 4 5 5 5 5 5 5 5 5 5 5 5 5 5 5 6 6 6 6 6 6 6 6 6 6 6 6
10 10 10 10 9 9 8 8 7 7 6 6 5 4 4 3 3 3 3 3 3 3 4 4 4 4 4 4 4 4 4 4 4 5 5 5 5 5 5 5 5 5 5 5 5 5 5 5 5
9 9 9 9 9 8 7 7 7 6 5 5 4 4 3 2 2 2 2 2 2 2 3 3 3 3 3 3 3 3 3 4 4 4 4 4 4 4 4 4 4 4 4 4 4 4 5 5 4
8 8 7 7 7 7 6 6 6 5 5 4 4 3 2 2 1 1 1 1 1 1 2 2 2 3 3 3 3 3 3 3 3 3 3 3 3 3 3 3 4 4 4 4 4 4 4 4 4
7 7 7 6 5 5 6 5 6 4 3 3 3 2 2 1 0 -0 -0 0 0 1 1 1 1 2 2 2 2 2 2 2 2 2 2 2 2 3 3 3 3 3 3 3 3 3 3 3 3
5 6 6 6 5 5 5 4 4 4 3 2 2 2 1 0 -0 -1 -1 -1 -1 -1 -0 0 0 1 1 1 1 1 1 1 1 1 1 2 2 2 2 2 2 2 2 2 2 3 3 3 3
5 5 5 5 4 3 5 4 4 3 3 2 1 1 0 -0 -1 -1 -1 -1 -2 -1 -1 -1 -0 0 0 1 0 0 0 1 1 1 1 1 1 1 1 1 1 2 2 2 2 2 2 2 2
4 4 4 4 3 4 4 4 2 2 1 1 0 -0 -1 -1 -2 -2 -2 -3 -2 -2 -2 -2 -1 -1 -1 -0 -0 -0 -0 -0 0 0 0 0 0 0 1 1 1 1 1 1 1 1 1 1 1
4 4 3 3 4 4 3 2 1 0 0 0 -0 -1 -2 -2 -3 -3 -3 -3 -3 -3 -3 -3 -2 -2 -2 -1 -1 -1 -1 -1 -1 -1 -1 -1 -0 -0 -0 -0 -0 0 0 0 0 0 0 0 1
3 3 3 2 2 2 3 2 1 0 -1 -1 -1 -2 -2 -3 -3 -3 -4 -4 -4 -4 -4 -3 -3 -3 -3 -2 -2 -2 -2 -2 -1 -1 -1 -1 -1 -1 -1 -1 -1 -0 -0 -0 -0 -0 -0 -0 -0
2 3 2 2 1 2 3 3 1 -1 -2 -2 -2 -2 -3 -3 -4 -4 -4 -4 -4 -4 -4 -4 -4 -4 -3 -3 -3 -3 -3 -2 -2 -2 -2 -2 -2 -2 -1 -1 -1 -1 -1 -1 -1 -1 -1 -1 -1
1 1 1 2 2 1 1 1 0 -1 -1 -2 -3 -3 -3 -4 -4 -5 -5 -5 -5 -5 -5 -5 -5 -4 -4 -4 -4 -3 -3 -3 -3 -3 -3 -2 -2 -2 -2 -2 -2 -2 -2 -2 -2 -1 -1 -1 -1
1 1 1 0 0 1 0 -0 -1 -2 -2 -2 -3 -3 -4 -5 -5 -5 -5 -5 -5 -5 -5 -5 -5 -5 -5 -5 -5 -4 -4 -4 -4 -4 -3 -3 -3 -3 -3 -3 -2 -2 -2 -2 -2 -2 -2 -2 -2
Wind_Speed
9 9 6 2 3 4 5 4 1 2 3 4 6 5 5 6 5 7 3 6 8 9 10 9 9 9 9 10 10 10 10 10 10 10 10 10 10 11 11 11 11 12 12 12 12 12 12 12 12
8 5 4 3 4 5 5 3 1 2 5 5 4 4 4 6 8 7 4 5 7 9 9 9 10 10 10 10 10 10 10 10 10 10 10 10 10 11 11 11 11 11 11 11 11 11 11 11 11
7 4 3 3 4 5 2 2 3 5 5 3 2 4 4 5 6 5 4 4 7 8 9 9 10 10 11 11 10 10 10 10 10 10 10 10 10 10 10 10 10 10 10 10 10 10 10 10 10
3 3 4 4 7 5 1 2 3 5 4 3 2 5 5 6 4 5 5 6 7 7 9 10 10 10 11 11 11 11 11 11 10 10 10 10 10 10 9 10 9 9 9 9 9 10 10 9 9
3 3 5 6 8 5 1 2 2 4 4 3 2 3 5 5 8 7 6 6 6 7 10 10 10 10 10 10 10 10 10 10 10 11 10 10 11 11 10 9 9 9 9 9 9 9 9 8 8
3 3 5 8 7 4 2 1 1 2 3 3 1 2 5 5 6 5 5 7 7 7 9 9 9 10 9 9 9 10 9 9 9 10 10 10 11 10 10 10 9 8 8 8 8 8 8 8 7
3 4 6 7 6 4 3 1 1 1 3 2 2 2 6 5 4 4 5 6 7 8 8 7 7 8 8 8 8 9 9 9 9 10 10 10 10 10 10 10 9 8 8 7 7 7 7 7 7
3 3 6 7 5 3 2 2 2 3 2 4 4 2 4 5 4 4 5 6 7 7 7 6 7 7 7 7 8 8 9 9 9 9 10 9 9 9 9 9 9 8 7 7 6 6 6 6 6
4 4 5 4 3 1 3 2 2 3 5 4 4 5 7 8 6 5 5 5 6 6 5 5 6 6 6 5 6 7 8 8 8 8 8 8 8 8 8 8 8 8 7 6 5 5 5 5 5
3 4 3 3 4 2 2 2 2 2 3 2 3 7 9 7 6 5 4 4 4 4 4 4 5 5 5 5 5 5 6 6 6 6 6 6 7 6 6 7 7 7 7 6 5 4 3 3 3
3 3 1 2 5 3 1 1 1 2 1 1 2 5 7 6 5 4 4 4 3 3 4 4 5 6 5 4 4 4 5 4 5 6 6 6 7 6 6 5 5 6 6 5 4 4 3 3 3
3 1 2 1 3 2 1 1 1 1 1 4 4 6 7 6 5 3 3 2 3 4 4 4 5 5 5 5 4 4 4 4 5 5 6 6 5 5 5 5 5 5 5 4 4 4 4 4 4
6 3 1 0 1 1 1 0 0 1 1 3 5 5 5 5 4 3 2 3 3 3 4 4 4 4 5 5 4 4 4 4 4 5 6 6 4 3 4 4 4 5 6 5 4 4 5 4 5
1 1 1 2 2 2 2 3 2 2 2 3 4 4 4 3 4 3 2 2 2 3 3 3 3 4 4 3 3 3 4 4 5 5 5 6 5 4 3 3 3 4 4 4 4 3 3 3 3
2 2 4 6 6 3 2 3 4 4 4 4 3 3 4 3 3 2 2 2 3 3 3 3 2 4 3 3 3 3 4 4 4 4 5 5 5 4 3 2 3 4 4 4 4 3 3 2 2
6 5 5 5 5 4 4 6 2 4 4 4 3 3 3 3 3 3 3 3 3 4 3 2 2 2 3 3 3 2 3 3 3 3 4 4 4 4 3 2 2 4 4 3 2 1 1 1 1
6 6 6 4 5 4 6 4 3 4 3 3 3 3 3 3 3 4 4 4 3 3 3 3 2 2 2 3 2 2 3 3 3 3 3 3 3 3 3 2 2 3 3 2 2 2 1 1 2
3 5 5 4 3 4 5 4 3 4 3 2 2 2 2 2 2 4 5 4 3 3 3 3 3 3 2 2 2 2 2 2 3 3 3 2 2 2 2 2 2 2 1 1 1 2 1 1 1
5 5 7 4 1 3 6 6 4 3 3 1 2 2 2 3 4 5 4 4 4 3 3 3 2 2 2 1 1 1 1 1 1 2 2 2 2 1 2 1 1 2 0 1 1 1 1 1 1
6 7 6 3 1 2 5 7 4 3 3 2 2 2 2 3 4 4 4 4 4 4 4 3 2 2 2 1 1 0 1 0 0 1 2 2 1 1 1 1 0 1 0 1 1 1 1 1 1
5 4 5 4 6 5 5 7 5 3 3 3 2 3 3 3 3 4 4 4 4 4 4 3 3 3 2 2 1 1 2 1 1 1 1 1 1 1 1 1 1 1 0 0 0 0 1 1 2
4 2 4 4 4 4 3 5 3 4 3 2 1 2 2 3 4 4 5 5 4 4 4 4 3 3 3 2 2 1 1 1 2 1 1 2 2 1 1 1 1 1 0 0 1 0 1 1 1
2 4 5 6 6 6 5 5 3 4 3 3 2 2 3 4 4 4 5 5 5 5 4 4 4 4 4 3 2 2 1 1 1 1 2 2 2 1 1 1 1 1 1 1 1 1 1 1 1
2 3 4 4 3 5 5 5 3 2 3 3 3 3 3 4 4 5 5 5 6 6 5 5 5 5 5 4 3 2 2 2 2 2 2 2 2 2 2 2 1 1 1 1 2 2 2 2 2
1 1 1 2 3 5 1 3 3 3 4 4 5 4 4 4 4 4 5 6 6 7 6 6 6 6 5 5 4 3 3 2 2 2 2 2 2 2 2 2 2 2 2 3 2 2 2 2 3
1 0 1 3 4 3 2 5 1 4 5 6 6 5 4 4 4 4 4 5 5 6 7 7 6 6 6 5 4 3 3 2 2 2 2 3 3 3 3 3 3 4 3 3 2 3 3 3 3
1 2 1 1 3 4 5 3 2 3 4 4 4 4 4 3 3 4 4 4 5 5 6 7 6 6 7 7 5 4 3 3 3 3 3 3 3 4 3 4 4 4 4 3 3 3 3 3 4
2 1 1 2 2 5 5 4 2 3 2 1 2 2 2 3 4 4 4 4 4 4 5 6 6 6 6 7 6 5 4 4 3 3 4 4 4 5 4 3 4 4 4 4 3 3 4 4 4
1 2 2 3 3 3 4 3 2 3 3 3 2 2 2 3 3 3 4 4 3 4 5 5 6 6 6 7 7 6 5 5 4 4 4 4 5 5 4 4 4 4 5 4 4 4 4 5 5
0 2 3 3 4 3 4 4 2 4 3 3 2 2 2 2 2 3 3 3 4 4 5 5 6 6 6 7 7 6 6 6 6 5 5 5 5 5 5 5 5 5 5 5 5 6 6 6 6
Wind_Direction
290 263 250 247 243 232 238 245 237 82 47 42 27 23 44 38 43 105 104 66 87 97 101 104 100 95 91 88 88 85 81 78 76 74 72 70 70 68 68 69 69 68 67 67 68 70 71 73 73
280 265 249 236 242 234 232 216 154 68 76 66 40 18 53 72 72 97 87 64 88 93 99 100 100 99 95 90 89 86 82 77 75 74 73 71 69 67 66 67 68 68 69 69 68 70 72 73 73
262 253 245 229 237 242 236 120 114 99 89 83 74 38 34 63 76 88 86 83 85 85 93 101 103 101 97 91 87 84 79 75 76 74 73 71 67 65 65 65 68 67 68 71 72 72 74 74 72
249 224 245 246 244 252 259 98 103 118 108 85 104 101 81 42 49 79 93 88 87 84 89 98 104 100 96 93 89 83 79 75 76 75 71 72 68 63 63 64 66 67 69 70 71 73 73 72 69
238 238 226 236 243 244 238 140 135 133 136 135 135 115 95 66 69 86 95 88 87 85 85 93 97 99 96 94 92 87 82 77 74 71 68 68 67 62 60 62 63 65 68 69 69 72 73 71 66
240 238 235 230 229 216 204 164 172 140 107 92 117 134 99 91 78 78 84 85 83 81 81 90 90 92 92 89 89 88 85 82 78 73 71 66 64 62 57 59 60 60 65 69 70 70 69 68 61
253 244 252 255 236 216 194 142 167 159 127 84 350 115 115 102 76 81 88 86 83 75 74 78 84 88 88 86 84 84 85 83 79 75 73 70 68 64 59 55 55 56 58 66 71 69 65 61 58
284 279 254 254 247 222 140 106 46 23 80 50 18 67 115 121 107 100 93 83 77 73 70 65 65 68 76 83 85 85 85 82 80 76 72 71 71 67 61 56 54 54 53 54 63 66 62 56 55
276 255 250 264 270 169 116 116 67 43 76 63 47 50 83 111 116 107 95 80 69 65 63 59 57 59 60 73 82 84 86 83 81 78 74 70 67 65 62 60 56 54 51 48 53 62 57 51 51
227 237 247 338 346 54 102 94 118 134 117 105 85 83 98 110 120 124 120 108 87 71 60 51 49 51 54 60 71 76 79 81 78 78 70 63 63 61 65 68 59 51 47 43 44 45 42 41 39
212 235 254 3 359 20 58 84 60 176 169 180 167 136 127 129 138 143 134 118 104 87 68 52 44 40 47 43 56 64 72 70 68 68 60 64 65 61 56 55 54 46 44 36 29 27 24 26 31
226 275 327 346 353 8 17 81 46 33 53 31 70 121 132 142 149 148 138 116 103 86 68 51 38 35 34 45 40 54 62 60 59 52 55 57 61 57 47 39 34 32 31 26 19 16 21 22 18
227 212 212 162 5 32 39 285 219 171 88 66 83 97 120 132 130 121 110 96 92 86 71 59 45 42 29 35 32 47 53 57 61 57 57 53 54 54 47 40 35 26 21 20 14 19 22 16 10
217 173 198 212 206 215 201 222 202 202 150 125 124 125 123 119 121 117 108 95 84 82 77 62 54 39 35 37 34 38 61 62 59 57 57 56 51 47 43 36 32 29 17 3 6 16 24 20 19
200 207 220 220 209 190 196 226 220 189 160 152 142 126 110 95 92 94 94 95 88 80 78 66 61 34 32 39 34 42 60 68 63 58 61 58 51 42 38 34 23 19 10 4 9 15 25 34 27
218 224 228 207 196 175 198 242 165 141 153 156 144 126 111 89 71 64 60 58 73 84 84 66 59 45 26 28 28 32 62 69 65 67 66 59 52 47 39 37 22 8 5 10 8 33 15 13 10
213 233 236 208 191 187 212 238 138 133 152 162 151 149 140 116 82 66 63 61 59 66 77 69 59 57 33 16 19 35 52 62 69 66 70 66 54 52 40 34 17 7 4 5 0 6 358 5 4
247 256 261 238 206 224 230 230 182 162 180 189 167 145 118 99 91 76 64 62 60 55 62 70 63 50 37 22 30 37 44 37 49 49 50 55 53 56 43 32 14 8 14 6 12 358 351 343 343
297 278 273 277 276 254 249 256 230 177 167 152 126 109 86 66 67 74 62 53 53 51 46 45 55 51 49 35 32 35 22 359 22 24 41 35 34 56 57 27 6 4 25 345 7 5 3 339 344
280 278 281 298 348 298 283 271 236 187 160 159 153 124 99 73 57 56 64 52 41 37 30 28 28 31 27 7 345 308 278 284 303 16 30 23 5 6 33 58 358 351 8 15 45 29 350 303 314
267 272 293 311 319 268 278 271 205 166 143 121 82 79 76 76 65 54 47 51 36 27 23 20 18 13 1 11 21 24 15 6 17 9 347 339 339 353 3 337 333 327 285 192 89 123 356 289 291
259 322 301 298 297 270 221 278 218 158 147 137 117 89 76 62 55 45 38 32 27 17 16 16 13 18 7 15 26 24 357 320 314 301 299 312 314 307 287 280 308 313 279 214 258 281 266 220 254
308 332 289 272 266 284 242 245 258 153 187 201 171 99 80 66 56 45 35 25 20 19 20 15 13 12 9 6 6 356 343 323 327 333 328 336 323 315 306 280 268 298 290 246 273 287 269 240 236
316 302 274 259 247 262 227 212 265 179 189 172 137 96 75 60 54 41 28 26 23 21 20 15 10 8 9 4 358 357 344 338 337 332 323 328 321 310 310 289 280 274 278 250 253 259 265 263 255
316 357 329 286 230 241 157 210 242 79 62 96 117 96 75 60 50 38 27 21 18 14 12 10 7 1 2 0 352 346 337 324 303 296 293 308 306 301 281 292 275 268 266 266 262 249 253 256 248
254 207 190 243 266 301 291 232 202 92 72 73 85 82 68 58 43 35 27 21 16 9 6 3 2 356 353 351 342 342 342 331 312 310 299 285 281 272 290 282 272 270 266 262 256 248 250 248 248
232 214 325 313 289 277 247 199 108 84 75 77 81 76 67 53 40 30 24 21 16 5 360 357 358 355 351 347 340 342 342 331 317 314 305 290 290 290 288 280 270 270 264 256 250 246 249 250 245
337 342 163 187 249 266 265 233 210 181 191 139 96 74 58 42 31 22 16 13 11 1 354 356 357 354 349 347 341 340 337 329 317 311 306 300 292 286 278 275 267 263 264 257 244 245 247 246 249
169 211 232 241 243 244 274 271 32 129 146 151 140 96 62 40 19 9 2 360 1 0 359 357 356 352 349 347 343 342 337 332 325 313 307 303 294 281 269 265 263 258 256 256 247 242 243 243 248
44 228 191 204 250 233 259 266 41 85 101 111 109 89 63 32 12 3 357 357 357 357 356 355 352 348 345 342 340 336 332 330 328 324 318 313 303 291 273 267 262 258 255 252 249 246 244 243 243
Height
1497 1499 1501 1504 1506 1507 1504 1496 1491 1494 1496 1499 1500 1500 1503 1508 1512 1523 1523 1521 1521 1521 1522 1524 1525 1526 1528 1529 1530 1531 1532 1533 1534 1535 1535 1536 1537 1538 1538 1539 1539 1540 1540 1541 1541 1541 1542 1542 1543
1497 1500 1503 1504 1506 1509 1503 1494 1494 1496 1499 1500 1502 1503 1505 1511 1515 1518 1519 1520 1521 1521 1523 1524 1525 1527 1528 1529 1530 1531 1532 1533 1534 1535 1536 1537 1537 1538 1539 1539 1540 1540 1541 1541 1542 1542 1542 1543 1544
1498 1500 1503 1502 1503 1503 1499 1494 1495 1498 1500 1502 1504 1506 1509 1514 1517 1518 1519 1520 1521 1521 1523 1524 1526 1527 1528 1529 1530 1531 1532 1533 1534 1535 1536 1537 1537 1538 1539 1539 1540 1541 1541 1541 1542 1542 1543 1544 1544
1499 1501 1502 1502 1501 1496 1493 1494 1495 1498 1501 1503 1505 1509 1512 1516 1517 1518 1519 1520 1521 1522 1523 1524 1526 1527 1528 1529 1530 1531 1532 1533 1534 1535 1536 1536 1537 1538 1539 1540 1540 1541 1541 1542 1542 1543 1543 1544 1545
1499 1500 1501 1501 1498 1493 1492 1493 1495 1497 1500 1503 1505 1508 1514 1516 1516 1517 1518 1520 1521 1522 1523 1524 1525 1527 1528 1529 1530 1531 1532 1533 1534 1535 1536 1536 1537 1538 1538 1539 1540 1541 1541 1542 1542 1542 1543 1544 1545
1499 1497 1501 1501 1496 1492 1492 1494 1495 1497 1500 1503 1505 1509 1514 1516 1516 1517 1518 1520 1521 1522 1523 1524 1525 1527 1528 1529 1530 1531 1532 1533 1534 1534 1535 1536 1536 1537 1538 1538 1539 1540 1541 1541 1542 1542 1543 1544 1545
1498 1497 1497 1493 1493 1492 1493 1494 1496 1498 1501 1504 1506 1508 1513 1514 1515 1517 1518 1519 1521 1522 1522 1523 1525 1526 1527 1528 1529 1530 1531 1532 1533 1534 1535 1535 1536 1536 1537 1538 1538 1539 1540 1541 1541 1542 1543 1544 1545
1496 1496 1493 1492 1492 1492 1493 1495 1498 1500 1502 1505 1506 1509 1512 1513 1514 1516 1518 1519 1520 1521 1522 1523 1524 1525 1526 1528 1529 1530 1531 1532 1532 1533 1534 1535 1535 1536 1537 1537 1538 1539 1539 1540 1541 1541 1542 1543 1544
1495 1498 1496 1492 1491 1493 1494 1496 1500 1501 1503 1506 1508 1510 1511 1512 1514 1515 1517 1518 1519 1520 1521 1522 1523 1524 1525 1527 1528 1529 1530 1531 1532 1532 1533 1534 1534 1535 1536 1536 1537 1538 1538 1539 1540 1540 1541 1542 1543
1494 1497 1494 1493 1492 1493 1495 1497 1500 1502 1504 1507 1509 1510 1510 1511 1513 1514 1515 1516 1518 1519 1520 1521 1522 1523 1524 1526 1527 1528 1528 1529 1530 1531 1532 1532 1533 1534 1535 1535 1536 1537 1537 1538 1539 1539 1540 1541 1542
1492 1494 1493 1494 1494 1494 1496 1498 1500 1501 1505 1507 1508 1509 1509 1510 1512 1513 1515 1516 1517 1518 1519 1520 1521 1522 1523 1524 1525 1526 1527 1528 1529 1530 1530 1531 1532 1533 1533 1534 1535 1535 1536 1536 1537 1538 1538 1539 1540
1492 1493 1494 1495 1495 1496 1497 1499 1501 1502 1505 1506 1506 1507 1508 1509 1511 1512 1514 1515 1516 1517 1518 1519 1520 1521 1522 1523 1524 1525 1525 1526 1527 1528 1529 1529 1530 1531 1531 1532 1533 1533 1534 1535 1535 1536 1537 1538 1539
1491 1493 1495 1496 1496 1497 1498 1500 1501 1503 1505 1505 1506 1507 1508 1509 1510 1511 1513 1514 1515 1516 1516 1518 1519 1519 1520 1521 1522 1523 1524 1525 1525 1526 1527 1528 1528 1529 1529 1530 1531 1532 1532 1533 1533 1534 1535 1536 1537
1491 1493 1494 1495 1496 1497 1499 1500 1501 1502 1503 1504 1505 1506 1507 1508 1509 1510 1511 1512 1513 1514 1515 1516 1517 1518 1519 1520 1520 1521 1521 1522 1523 1524 1525 1526 1526 1527 1527 1528 1529 1529 1530 1531 1532 1532 1533 1533 1534
1492 1494 1494 1494 1494 1496 1498 1500 1500 1500 1502 1503 1504 1505 1506 1507 1508 1509 1509 1510 1511 1512 1513 1514 1515 1516 1517 1518 1518 1518 1519 1520 1521 1522 1523 1524 1524 1525 1525 1526 1526 1527 1528 1529 1529 1530 1531 1531 1532
1491 1493 1494 1491 1491 1494 1499 1499 1498 1498 1500 1502 1503 1505 1506 1507 1507 1508 1508 1509 1509 1510 1511 1512 1513 1513 1514 1515 1516 1516 1517 1518 1519 1520 1520 1521 1522 1522 1523 1523 1524 1524 1525 1526 1527 1527 1528 1528 1529
1490 1492 1489 1491 1490 1491 1495 1496 1498 1498 1499 1501 1503 1504 1505 1506 1506 1506 1506 1507 1508 1508 1509 1509 1510 1511 1512 1512 1513 1514 1514 1515 1516 1517 1518 1519 1519 1519 1520 1521 1521 1522 1522 1523 1524 1524 1525 1525 1526
1491 1488 1485 1488 1489 1490 1493 1495 1496 1497 1499 1500 1502 1503 1504 1505 1505 1505 1505 1505 1506 1507 1507 1507 1508 1508 1509 1510 1510 1511 1512 1513 1513 1514 1515 1516 1516 1517 1517 1518 1518 1519 1519 1520 1521 1521 1522 1523 1523
1489 1488 1488 1487 1489 1490 1492 1493 1494 1495 1497 1499 1501 1503 1504 1505 1505 1504 1504 1504 1504 1505 1505 1505 1506 1506 1506 1507 1507 1508 1509 1510 1510 1511 1512 1512 1513 1513 1514 1515 1515 1516 1516 1517 1517 1518 1519 1520 1521
1489 1490 1489 1489 1489 1492 1492 1492 1492 1494 1496 1499 1500 1502 1503 1504 1503 1503 1503 1503 1503 1503 1503 1503 1503 1504 1504 1504 1505 1505 1506 1506 1507 1508 1509 1509 1510 1510 1510 1511 1512 1512 1513 1513 1514 1515 1515 1516 1518
1491 1493 1493 1495 1494 1492 1494 1492 1491 1492 1495 1498 1500 1501 1502 1503 1503 1503 1502 1502 1502 1501 1501 1501 1501 1501 1502 1502 1502 1503 1503 1504 1504 1505 1505 1506 1507 1507 1507 1508 1508 1509 1509 1510 1510 1512 1512 1513 1515
1493 1494 1495 1496 1499 1496 1493 1498 1490 1492 1495 1497 1499 1500 1502 1502 1502 1502 1501 1501 1501 1500 1500 1500 1499 1499 1499 1499 1499 1500 1500 1500 1500 1501 1502 1502 1503 1504 1504 1505 1505 1505 1506 1506 1507 1508 1509 1510 1511
1496 1495 1495 1495 1497 1498 1494 1498 1493 1492 1496 1498 1499 1500 1501 1502 1502 1502 1501 1501 1500 1499 1499 1498 1497 1497 1497 1497 1497 1497 1497 1498 1498 1498 1498 1499 1500 1500 1501 1501 1501 1502 1502 1503 1504 1504 1505 1506 1507
1496 1496 1495 1495 1498 1503 1492 1496 1494 1494 1494 1496 1498 1500 1501 1502 1502 1501 1501 1500 1499 1498 1497 1496 1495 1495 1494 1494 1494 1494 1495 1495 1495 1495 1495 1495 1496 1496 1497 1497 1498 1498 1498 1499 1500 1500 1501 1502 1503
1497 1500 1502 1502 1502 1496 1491 1495 1498 1496 1495 1495 1498 1500 1501 1501 1501 1501 1500 1499 1498 1496 1495 1494 1493 1493 1492 1492 1492 1492 1492 1492 1491 1491 1491 1492 1492 1492 1493 1493 1494 1494 1494 1495 1496 1496 1497 1498 1499
1499 1500 1507 1509 1501 1494 1496 1497 1498 1497 1497 1497 1498 1500 1501 1501 1501 1501 1500 1498 1497 1495 1494 1493 1492 1491 1490 1489 1489 1489 1489 1488 1488 1488 1488 1488 1488 1488 1489 1489 1489 1490 1490 1491 1491 1492 1493 1494 1495
1499 1501 1501 1506 1506 1508 1495 1493 1498 1498 1498 1499 1500 1500 1501 1501 1501 1500 1499 1498 1496 1495 1493 1492 1490 1489 1488 1487 1487 1486 1486 1485 1485 1485 1485 1484 1484 1484 1484 1485 1485 1486 1486 1486 1487 1487 1488 1489 1490
1502 1502 1505 1508 1510 1505 1490 1489 1495 1500 1500 1500 1500 1500 1501 1501 1500 1499 1498 1497 1496 1494 1492 1491 1489 1487 1486 1485 1484 1483 1483 1482 1481 1481 1481 1480 1480 1480 1480 1480 1481 1481 1481 1482 1482 1483 1484 1485 1486
1505 1505 1504 1504 1502 1506 1502 1499 1497 1497 1497 1499 1500 1500 1501 1500 1500 1499 1497 1496 1494 1493 1491 1489 1487 1485 1483 1482 1481 1480 1479 1478 1478 1477 1476 1476 1476 1475 1475 1476 1476 1476 1476 1477 1478 1478 1479 1480 1481
1503 1503 1505 1510 1507 1504 1506 1506 1498 1497 1497 1498 1499 1500 1500 1499 1498 1497 1496 1494 1493 1491 1489 1487 1485 1483 1481 1479 1478 1477 1476 1475 1474 1473 1473 1472 1472 1471 1471 1471 1471 1471 1472 1472 1473 1473 1474 1475 1475